This is the latest recevied weather packets stored in our database for station/object KB7STN. If no packets are shown the sender has not sent any weather packets the latest 10 day(s).
| Time | Temp. | Humidity | Pressure | Rain* | Wind** | Luminosity | Snow |
|---|---|---|---|---|---|---|---|
| 1777986138 | 11.11° C | 58% | 998.5 hPa | 0 mm | - | - | - |
| 1777985837 | 11.11° C | 58% | 998.5 hPa | 0 mm | - | - | - |
| 1777985537 | 11.11° C | 55% | 998.4 hPa | 0 mm | - | - | - |
| 1777985238 | 11.11° C | 55% | 998.2 hPa | 0 mm | - | - | - |
| 1777984938 | 11.11° C | 57% | 998.2 hPa | 0 mm | - | - | - |
| 1777984638 | 11.11° C | 59% | 998.1 hPa | 0 mm | - | - | - |
| 1777984338 | 11.11° C | 62% | 998 hPa | 0 mm | - | - | - |
| 1777984038 | 11.11° C | 63% | 998 hPa | 0 mm | - | - | - |
| 1777983738 | 11.11° C | 64% | 998 hPa | 0 mm | - | - | - |
| 1777983438 | 11.11° C | 66% | 998.1 hPa | 0 mm | - | - | - |
| 1777983137 | 11.11° C | 66% | 998.2 hPa | 0 mm | - | - | - |
| 1777982838 | 11.11° C | 65% | 998.3 hPa | 0 mm | - | - | - |
| 1777982538 | 11.11° C | 63% | 998.3 hPa | 0 mm | - | - | - |
| 1777982238 | 11.11° C | 63% | 998.4 hPa | 0 mm | - | - | - |
| 1777981938 | 11.67° C | 62% | 998.4 hPa | 0 mm | - | - | - |
| 1777981638 | 11.67° C | 60% | 998.4 hPa | 0 mm | - | - | - |
| 1777981338 | 11.67° C | 60% | 998.4 hPa | 0 mm | - | - | - |
| 1777981038 | 11.67° C | 59% | 998.4 hPa | 0 mm | - | - | - |
| 1777980738 | 11.67° C | 58% | 998.4 hPa | 0 mm | - | - | - |
| 1777980438 | 11.67° C | 57% | 998.4 hPa | 0 mm | - | - | - |
| 1777980138 | 11.67° C | 58% | 998.4 hPa | 0 mm | - | - | - |
| 1777979838 | 11.67° C | 58% | 998.3 hPa | 0 mm | - | - | - |
| 1777979538 | 11.67° C | 58% | 998.3 hPa | 0 mm | - | - | - |
| 1777979238 | 11.67° C | 58% | 998.3 hPa | 0 mm | - | - | - |
| 1777978938 | 11.67° C | 58% | 998.2 hPa | 0 mm | - | - | - |
* Rain latest hour (hover to see other rain measurements)
** Current wind speed in m/s (hover to see current wind gust speed)